Miscellaneous Local Product
Issued by NWS Hastings, NE

Home | Current Version | Previous Version | Graphics & Text | Print | Product List | Glossary On
Versions: 1 2 3 4 5 6 7 8 9 10 11 12 13 14 15 16 17 18 19 20 21 22 23 24 25 26 27 28 29 30 31 32 33 34 35 36 37 38 39 40 41 42 43 44 45 46 47 48 49 50
000
AXUS43 KGID 271802
MISGRI

GID CWA HOURLY WEATHER ROUNDUP
NATIONAL WEATHER SERVICE HASTINGS NE
100 PM CDT THU AUG 27 2015

NOTE: "FAIR" INDICATES FEW OR NO CLOUDS BELOW 12,000 FEET WITH NO
SIGNIFICANT WEATHER AND/OR OBSTRUCTIONS TO VISIBILITY.

...SOUTH CENTRAL NEBRASKA...

CITY           SKY/WX    TMP DP  RH WIND       PRES   REMARKS
GRAND ISLAND   CLOUDY    79  68  69 SE15      29.93F
HASTINGS       CLOUDY    78  69  73 SE21G29   29.92F
KEARNEY        CLOUDY    79  70  73 SE17      29.91F
ORD            PTSUNNY   79  68  69 E12       29.89F
YORK           CLOUDY    75  68  78 SE16      29.96F
AURORA         CLOUDY    77  71  82 SE18      29.94F
LEXINGTON      CLOUDY    78  69  73 SE9       29.90F
HOLDREGE       CLOUDY    83  65  56 E14       29.90F
HEBRON         CLOUDY    80  66  62 SE16G25   29.96F

...NEBRASKA PANHANDLE...

CITY           SKY/WX    TMP DP  RH WIND       PRES   REMARKS
CHADRON        PTSUNNY   79  58  48 NW9       30.03F
ALLIANCE       MOSUNNY   80  63  55 N15       30.01F
SCOTTSBLUFF    PTSUNNY   84  62  47 NW16      30.03F
SIDNEY         SUNNY     86  55  34 NW24G31   30.03F

...WESTERN AND NORTH CENTRAL NEBRASKA...

CITY           SKY/WX    TMP DP  RH WIND       PRES   REMARKS
VALENTINE      NOT AVBL
AINSWORTH      MOSUNNY   77  67  70 NE7       29.94S
ONEILL         PTSUNNY   75  69  81 SE12      29.93F
BROKEN BOW     CLOUDY    81  68  64 SE12G20   29.91F
IMPERIAL       SUNNY     88  60  38 N12       29.92S
NORTH PLATTE   CLOUDY    78  65  63 E7        29.90S
MCCOOK         PTSUNNY   91  53  27 S9        29.87F

...EASTERN NEBRASKA...

CITY           SKY/WX    TMP DP  RH WIND       PRES   REMARKS
NORFOLK        PTSUNNY   76  67  73 SE18      29.95F
SO SIOUX CITY  PTSUNNY   72  62  71 SE16G29   30.00F
TEKAMAH        CLOUDY    75  63  66 SE20G28   29.99F
COLUMBUS       PTSUNNY  N/A N/A N/A SE14G20   29.96F
ALBION         CLOUDY    75  66  72 E18       29.93F
OMAHA EPPLEY   CLOUDY    77  63  61 S22G31    30.01F
OFFUTT AFB     CLOUDY    74  62  66 SE18G29   30.01F
MILLARD        CLOUDY    72  62  71 SE17G24   30.03F
LINCOLN        PTSUNNY   79  65  62 SE20G26   30.00F
NEBRASKA CITY  PTSUNNY   76  60  57 SE18      30.06R
BEATRICE       PTSUNNY   78  67  67 SE15G25   29.99F
FALLS CITY     CLOUDY    77  66  68 SE21G26   30.06R

...NORTHERN KANSAS...

CITY           SKY/WX    TMP DP  RH WIND       PRES   REMARKS
GOODLAND       MOSUNNY   89  51  27 NW22G28   29.97F
HILL CITY      CLOUDY    95  55  26 SW18G26   29.88F HX  93
NORTON         CLEAR     88  54  31 S9        29.87F
PHILLIPSBURG   SUNNY     99  55  23 S10       29.87F HX  97
SMITH CENTER   SUNNY     90  64  43 SE18G24   29.90F HX  91
HAYS             N/A    N/A N/A N/A MISG        N/A
RUSSELL        CLOUDY    95  60  31 S20       29.91F HX  95
CONCORDIA        N/A     85  69  58 MISG      29.95F
SALINA         MOSUNNY   86  68  54 S22G33    29.97S
TOPEKA         CLOUDY    78  68  71 SE10      30.05F



USA.gov is the U.S. government's official web portal to all federal, state and local government web resources and services.